This is the latest recevied weather packets stored in our database for station/object KB0RPJ. If no packets are shown the sender has not sent any weather packets the latest 10 day(s).
| Time | Temp. | Humidity | Pressure | Rain* | Wind** | Luminosity | Snow |
|---|---|---|---|---|---|---|---|
| 1777914005 | 23.89° C | 49% | 1001.3 hPa | 0 mm | - | 867 W/m² | - |
| 1777913706 | 23.89° C | 49% | 1001.4 hPa | 0 mm | - | 860 W/m² | - |
| 1777913406 | 23.33° C | 47% | 1001.4 hPa | 0 mm | - | 854 W/m² | - |
| 1777913104 | 23.33° C | 48% | 1001.4 hPa | 0 mm | - | 846 W/m² | - |
| 1777912805 | 23.33° C | 48% | 1001.3 hPa | 0 mm | - | 836 W/m² | - |
| 1777912504 | 23.33° C | 50% | 1001.4 hPa | 0 mm | - | 828 W/m² | - |
| 1777912205 | 23.33° C | 49% | 1001.4 hPa | 0 mm | - | 818 W/m² | - |
| 1777911905 | 22.78° C | 50% | 1001.4 hPa | 0 mm | - | 808 W/m² | - |
| 1777911605 | 22.78° C | 49% | 1001.3 hPa | 0 mm | - | 794 W/m² | - |
| 1777911305 | 22.78° C | 50% | 1001.3 hPa | 0 mm | - | 787 W/m² | - |
| 1777911005 | 22.22° C | 50% | 1001.5 hPa | 0 mm | - | 775 W/m² | - |
| 1777910704 | 22.22° C | 51% | 1001.3 hPa | 0 mm | - | 764 W/m² | - |
| 1777910405 | 22.22° C | 50% | 1001.4 hPa | 0 mm | - | 751 W/m² | - |
| 1777910104 | 22.22° C | 50% | 1001.5 hPa | 0 mm | - | 739 W/m² | - |
| 1777909805 | 21.67° C | 53% | 1001.5 hPa | 0 mm | - | 727 W/m² | - |
| 1777909505 | 21.67° C | 54% | 1001.5 hPa | 0 mm | - | 712 W/m² | - |
| 1777909224 | 21.67° C | 52% | 1001.6 hPa | 0 mm | - | 699 W/m² | - |
| 1777908905 | 21.11° C | 54% | 1001.5 hPa | 0 mm | - | 685 W/m² | - |
| 1777908606 | 21.11° C | 54% | 1001.6 hPa | 0 mm | - | 672 W/m² | - |
| 1777908305 | 21.11° C | 55% | 1001.5 hPa | 0 mm | - | 658 W/m² | - |
| 1777908005 | 21.11° C | 56% | 1001.5 hPa | 0 mm | - | 643 W/m² | - |
| 1777907705 | 20.56° C | 55% | 1001.4 hPa | 0 mm | - | 628 W/m² | - |
| 1777907405 | 20.56° C | 55% | 1001.5 hPa | 0 mm | - | 614 W/m² | - |
| 1777907105 | 20.56° C | 56% | 1001.5 hPa | 0 mm | - | 599 W/m² | - |
| 1777906805 | 20° C | 57% | 1001.6 hPa | 0 mm | - | 360 W/m² | - |
* Rain latest hour (hover to see other rain measurements)
** Current wind speed in m/s (hover to see current wind gust speed)